This is the latest recevied weather packets stored in our database for station/object OM7ABC-17. If no packets are shown the sender has not sent any weather packets the latest 10 day(s).
| Time | Temp. | Humidity | Pressure | Rain* | Wind** | Luminosity | Snow |
|---|---|---|---|---|---|---|---|
| 1777551070 | 22.78° C | 23% | 1003.2 hPa | - | - | - | - |
| 1777550169 | 23.33° C | 23% | 1003.5 hPa | - | - | - | - |
| 1777544769 | 22.22° C | 24% | 1004.4 hPa | - | - | - | - |
| 1777543869 | 22.22° C | 24% | 1004.5 hPa | - | - | - | - |
| 1777542969 | 22.22° C | 24% | 1004.6 hPa | - | - | - | - |
| 1777542069 | 21.67° C | 24% | 1004.8 hPa | - | - | - | - |
| 1777541169 | 21.11° C | 24% | 1004.9 hPa | - | - | - | - |
| 1777540269 | 21.11° C | 24% | 1004.9 hPa | - | - | - | - |
| 1777539369 | 20.56° C | 25% | 1005.1 hPa | - | - | - | - |
| 1777537569 | 20° C | 25% | 1005.3 hPa | - | - | - | - |
| 1777536668 | 19.44° C | 25% | 1005.5 hPa | - | - | - | - |
| 1777535774 | 18.89° C | 25% | 1005.6 hPa | - | - | - | - |
| 1777533974 | 18.33° C | 25% | 1005.6 hPa | - | - | - | - |
| 1777533074 | 18.33° C | 25% | 1005.5 hPa | - | - | - | - |
| 1777532174 | 18.33° C | 25% | 1005.7 hPa | - | - | - | - |
| 1777531274 | 18.33° C | 25% | 1005.7 hPa | - | - | - | - |
| 1777530374 | 18.33° C | 25% | 1005.7 hPa | - | - | - | - |
| 1777529474 | 18.33° C | 25% | 1005.6 hPa | - | - | - | - |
| 1777528574 | 18.33° C | 25% | 1005.5 hPa | - | - | - | - |
| 1777527674 | 18.33° C | 25% | 1005.6 hPa | - | - | - | - |
| 1777526774 | 18.33° C | 25% | 1005.7 hPa | - | - | - | - |
| 1777525874 | 18.33° C | 25% | 1005.8 hPa | - | - | - | - |
| 1777524974 | 18.89° C | 25% | 1006 hPa | - | - | - | - |
| 1777524074 | 19.44° C | 25% | 1005.9 hPa | - | - | - | - |
| 1777523173 | 18.89° C | 25% | 1005.8 hPa | - | - | - | - |
* Rain since midnight (hover to see other rain measurements)
** Current wind speed in m/s (hover to see current wind gust speed)